Regional Weather Roundup
Issued by NWS Spokane, WA

Home | Current Version | Previous Version | Text Only | Print | Product List | Glossary On
Versions: 1 2 3 4 5 6 7 8 9 10 11 12 13 14 15 16 17 18 19 20 21 22 23 24 25 26 27 28 29 30 31 32 33 34 35 36 37 38 39 40 41 42 43 44 45 46 47 48 49 50
000
NZUS01 KOTX 181625
RWROTX

Eastern Washington/Northern Idaho Roundup
National Weather Service, Spokane WA
900 AM PDT FRI AUG 18 2017

Note: "fair" indicated few or no clouds below 12,000 feet with no
significant weather and/or obstructions to visibility.

...Northeast Washington and Northern Idaho Panhandle...

CITY           SKY/WX    TMP DP  RH WIND       PRES   REMARKS
Spokane Intl   MOSUNNY   67  45  45 S7        30.06S
Spokane Downto SUNNY     71  45  39 SW9       30.06S
Coeur d Alene  SUNNY     69  47  45 S10       30.08R
Deer Park      SUNNY     67  43  41 SE7       30.07S
Sandpoint      SUNNY     70  46  43 SE5       30.05F
Bonners Ferry  FAIR      68  46  45 CALM      30.04S

...Southeast Washington and southern Idaho Panhandle...

CITY           SKY/WX    TMP DP  RH WIND       PRES   REMARKS
Walla Walla    SUNNY     76  38  25 SW12      30.06R
Pullman/Moscow SUNNY     71  40  32 S6        30.10F
Lewiston       SUNNY     68  47  46 N3        30.06F
Lowell           N/A     61  47  59 CALM      30.12F
Grangeville    FAIR      70  43  37 NE5       30.13S

...Columbia Basin...

CITY           SKY/WX    TMP DP  RH WIND       PRES   REMARKS
Ephrata        SUNNY     65  44  46 SE3       30.01S
Moses Lake     SUNNY     69  51  52 W5        30.02S
Pasco          SUNNY     75  50  41 SW9       30.02S
Richland       SUNNY     78  51  40 S9        30.02S
Hermiston        N/A     73  46  38 W7        30.04S
Pendleton      SUNNY     68  35  29 SE5       30.08S

...East Slopes Cascades...

CITY           SKY/WX    TMP DP  RH WIND       PRES   REMARKS
The Dalles     SUNNY     71  55  56 N12       30.05S
Yakima         SUNNY     74  47  38 W3        30.04S
Ellensburg     SUNNY     73  47  39 NW17G24   30.05F
Stampede Pass  MOSUNNY   52  51  97 SW7       30.20S
Wenatchee      SUNNY     74  45  35 NW10      30.01F
Omak           SUNNY     70  40  33 CALM      30.01F
Sunnyside        N/A     66  49  53 CALM      30.03S

...Southern British Columbia...

CITY           SKY/WX    TMP DP  RH WIND       PRES   REMARKS
Penticton      PTSUNNY   73  48  40 N5        30.00F
Castlegar      MOSUNNY   66  46  48 S6        30.01F
Cranbrook      MOSUNNY   73  45  35 E5        30.00F
Osoyoos          N/A     70  54  56 NE1         N/A
Creston          N/A     70  46  43 SE3         N/A

...Western Montana...

CITY           SKY/WX    TMP DP  RH WIND       PRES   REMARKS
Kalispell      SUNNY     65  47  52 VRB3      30.07F
Libby            N/A     64  45  48 CALM      30.04F
Missoula       SUNNY     62  42  47 CALM      30.13F

...Neighboring Cities...

CITY           SKY/WX    TMP DP  RH WIND       PRES   REMARKS
Seattle        PTSUNNY   60  54  80 S5        30.18S
Portland       PTSUNNY   61  54  77 NW6       30.19S
Boise          SUNNY     71  41  33 CALM      30.11S
Great Falls    SUNNY     74  37  26 SW16      30.05S
Calgary        MOSUNNY   68  43  40 S8        29.90F



USA.gov is the U.S. government's official web portal to all federal, state and local government web resources and services.